JST518 YMML-YMLT

Flight info

Callsign JST518
Flight time N/A
Altitude 33000
Route SUNTI H169 IRSOM W105 LT
Aircraft A321/M-SDE3FGHIRWY/LB1

Departure

Time N/A
Airport Melbourne Airport (YMML)

Arrival

Time 2026-04-27 23:36
Airport Launceston Airport (YMLT)
Time Latitude Longitude Altitude Speed Heading
2026-04-27 23:15 -40.02112 146.18330 33339 ft 451 kts 156°
2026-04-27 23:15 -40.04907 146.20172 33338 ft 451 kts 156°
2026-04-27 23:15 -40.07715 146.22022 33164 ft 451 kts 156°
2026-04-27 23:15 -40.09566 146.23246 32797 ft 450 kts 156°
2026-04-27 23:16 -40.12349 146.25091 32252 ft 447 kts 156°
2026-04-27 23:16 -40.15118 146.26927 31700 ft 445 kts 156°
2026-04-27 23:16 -40.18774 146.29342 30955 ft 443 kts 156°
2026-04-27 23:16 -40.20632 146.30565 30568 ft 442 kts 156°
2026-04-27 23:17 -40.24263 146.32966 29756 ft 440 kts 155°
2026-04-27 23:17 -40.26102 146.34189 29375 ft 437 kts 155°
2026-04-27 23:17 -40.28804 146.35991 28800 ft 434 kts 155°
2026-04-27 23:17 -40.31481 146.37776 28234 ft 431 kts 155°
2026-04-27 23:18 -40.34147 146.39551 27685 ft 429 kts 155°
2026-04-27 23:18 -40.36799 146.41321 27133 ft 426 kts 155°
2026-04-27 23:18 -40.39435 146.43083 26576 ft 424 kts 155°
2026-04-27 23:18 -40.42060 146.44837 26023 ft 423 kts 155°
2026-04-27 23:19 -40.44679 146.46590 25479 ft 421 kts 155°
2026-04-27 23:19 -40.47284 146.48337 24933 ft 421 kts 155°
2026-04-27 23:19 -40.49890 146.50083 24410 ft 419 kts 155°
2026-04-27 23:19 -40.52486 146.51822 23869 ft 419 kts 155°
2026-04-27 23:20 -40.55078 146.53559 23315 ft 417 kts 155°
2026-04-27 23:20 -40.57645 146.55279 22821 ft 413 kts 155°
2026-04-27 23:20 -40.60201 146.56995 22333 ft 410 kts 155°
2026-04-27 23:20 -40.62731 146.58698 21865 ft 407 kts 155°
2026-04-27 23:21 -40.65247 146.60389 21384 ft 404 kts 155°
2026-04-27 23:21 -40.67742 146.62063 20909 ft 401 kts 155°
2026-04-27 23:21 -40.70220 146.63729 20429 ft 399 kts 155°
2026-04-27 23:21 -40.72648 146.65364 19944 ft 396 kts 155°
2026-04-27 23:22 -40.75098 146.67018 19453 ft 394 kts 155°
2026-04-27 23:22 -40.77527 146.68659 18945 ft 392 kts 155°
2026-04-27 23:22 -40.79949 146.70298 18399 ft 391 kts 155°
2026-04-27 23:22 -40.82363 146.71931 17862 ft 387 kts 155°
2026-04-27 23:23 -40.84749 146.73543 17336 ft 384 kts 155°
2026-04-27 23:23 -40.87123 146.75152 16823 ft 382 kts 155°
2026-04-27 23:23 -40.89477 146.76757 16293 ft 380 kts 154°
2026-04-27 23:23 -40.91816 146.78354 15764 ft 377 kts 154°
2026-04-27 23:24 -40.94140 146.79937 15247 ft 375 kts 155°
2026-04-27 23:24 -40.96461 146.81515 14727 ft 373 kts 155°
2026-04-27 23:24 -40.98764 146.83081 14205 ft 372 kts 155°
2026-04-27 23:24 -41.01066 146.84646 13642 ft 370 kts 155°
2026-04-27 23:25 -41.03344 146.86195 13120 ft 367 kts 155°
2026-04-27 23:25 -41.05614 146.87741 12602 ft 365 kts 155°
2026-04-27 23:25 -41.07863 146.89275 12088 ft 363 kts 155°
2026-04-27 23:25 -41.10098 146.90806 11573 ft 361 kts 155°
2026-04-27 23:26 -41.12320 146.92330 11070 ft 359 kts 155°
2026-04-27 23:26 -41.14538 146.93853 10648 ft 355 kts 155°
2026-04-27 23:26 -41.16689 146.95332 10530 ft 341 kts 155°
2026-04-27 23:26 -41.18751 146.96747 10376 ft 325 kts 155°
2026-04-27 23:27 -41.20721 146.98101 9760 ft 315 kts 156°
2026-04-27 23:27 -41.22611 146.99400 9583 ft 310 kts 156°
2026-04-27 23:27 -41.24534 147.00716 9310 ft 312 kts 156°
2026-04-27 23:27 -41.26448 147.02023 8812 ft 308 kts 156°
2026-04-27 23:28 -41.28343 147.03321 8306 ft 305 kts 156°
2026-04-27 23:28 -41.30215 147.04608 7811 ft 302 kts 156°
2026-04-27 23:28 -41.32089 147.05898 7317 ft 305 kts 156°
2026-04-27 23:28 -41.33967 147.07195 6920 ft 304 kts 156°
2026-04-27 23:29 -41.35865 147.08511 6602 ft 301 kts 156°
2026-04-27 23:29 -41.37692 147.09776 6240 ft 300 kts 156°
2026-04-27 23:29 -41.39535 147.11050 5891 ft 297 kts 156°
2026-04-27 23:29 -41.41350 147.12305 5329 ft 291 kts 155°
2026-04-27 23:30 -41.43142 147.13537 4582 ft 287 kts 156°
2026-04-27 23:30 -41.44984 147.14471 3886 ft 279 kts 171°
2026-04-27 23:30 -41.46856 147.14775 3533 ft 262 kts 183°
2026-04-27 23:30 -41.48599 147.14754 3342 ft 238 kts 188°
2026-04-27 23:31 -41.50182 147.14610 3306 ft 223 kts 190°
2026-04-27 23:31 -41.51707 147.14395 3322 ft 219 kts 190°
2026-04-27 23:31 -41.53227 147.14439 3409 ft 221 kts 174°
2026-04-27 23:31 -41.54728 147.14985 3455 ft 225 kts 162°
2026-04-27 23:32 -41.56154 147.15823 3341 ft 225 kts 154°
2026-04-27 23:32 -41.57490 147.16912 3233 ft 225 kts 147°
2026-04-27 23:32 -41.58791 147.18051 3182 ft 223 kts 150°
2026-04-27 23:32 -41.60119 147.19120 3120 ft 223 kts 152°
2026-04-27 23:33 -41.61449 147.20168 3080 ft 221 kts 151°
2026-04-27 23:33 -41.62752 147.21244 2911 ft 219 kts 144°
2026-04-27 23:33 -41.63726 147.22774 2716 ft 217 kts 107°
2026-04-27 23:33 -41.63657 147.24683 2411 ft 205 kts 56°
2026-04-27 23:34 -41.62635 147.25746 2164 ft 178 kts
2026-04-27 23:34 -41.61479 147.25677 1914 ft 158 kts 346°
2026-04-27 23:34 -41.60469 147.25383 1789 ft 143 kts 342°
2026-04-27 23:34 -41.59527 147.25024 1559 ft 137 kts 339°
2026-04-27 23:35 -41.58674 147.24549 1411 ft 134 kts 334°
2026-04-27 23:35 -41.57858 147.23978 1249 ft 131 kts 328°
2026-04-27 23:35 -41.57102 147.23311 1099 ft 131 kts 329°
2026-04-27 23:35 -41.56326 147.22669 897 ft 130 kts 332°
2026-04-27 23:36 -41.55564 147.22016 745 ft 129 kts 328°
2026-04-27 23:36 -41.54823 147.21378 593 ft 115 kts 322°
2026-04-27 23:36 -41.54291 147.20916 592 ft 59 kts 328°
2026-04-27 23:36 -41.54085 147.20742 590 ft 20 kts 328°
2026-04-27 23:37 -41.54041 147.20629 589 ft 12 kts 251°
2026-04-27 23:37 -41.54072 147.20571 584 ft 6 kts 212°
2026-04-27 23:37 -41.54082 147.20567 584 ft 0 kts 196°
2026-04-27 23:37 -41.54084 147.20566 584 ft 0 kts 196°
2026-04-27 23:38 -41.54096 147.20569 584 ft 4 kts 169°
2026-04-27 23:38 -41.54130 147.20587 584 ft 7 kts 151°
2026-04-27 23:39 -41.54176 147.20626 584 ft 9 kts 147°
2026-04-27 23:39 -41.54235 147.20677 584 ft 11 kts 147°
2026-04-27 23:39 -41.54283 147.20719 584 ft 5 kts 147°
2026-04-27 23:39 -41.54314 147.20738 584 ft 4 kts 180°
2026-04-27 23:40 -41.54320 147.20728 584 ft 0 kts 244°
2026-04-27 23:40 -41.54320 147.20725 584 ft 1 kts 253°
2026-04-27 23:40 -41.54322 147.20714 584 ft 1 kts 260°
2026-04-27 23:40 -41.54320 147.20703 584 ft 0 kts 285°
2026-04-27 23:41 -41.54319 147.20695 584 ft 1 kts 289°
2026-04-27 23:41 -41.54318 147.20694 584 ft 0 kts 291°